Location: Santa Cristina
(46.5667°N, 11.7167°E)
Time: 18:16:54
(UTC+00:00)

Okean 1-7 - Pass Details

Date: 21 April 2021
Orbit: 590 x 618 km, 82.5° (Epoch: 12 May)

Event Time Altitude Azimuth Distance (km) Brightness Sun altitude
Exits shadow 02:10:00 39° 267° (W) 901 3.5 -19.3°
Maximum altitude 02:10:28 40° 284° (WNW) 879 3.5 -19.2°
Drops below altitude 10° 02:14:30 10° 355° (N) 1,934 6.1 -18.7°
Sets 02:16:49 0° 3° (N) 2,839 7.2 -18.4°
